Overview Statistics Trail Chart Weather Telemetry Raw packets
 

This is the latest recevied weather packets stored in our database for station/object DC1MPP-9. If no packets are shown the sender has not sent any weather packets the latest 10 day(s).

<< 89 90 91 92 93 94 95 >>
Time Temp. Humidity Pressure Rain* Wind** Luminosity Snow
1787917704 26.67° C 84% 957 hPa - - - -
1787917463 27.22° C 82% 957 hPa - - - -
1787916981 26.67° C 90% 957 hPa - - - -
1787916740 27.22° C 89% 957 hPa - - - -
1787916017 27.22° C 91% 957 hPa - - - -
1787915776 27.22° C 91% 957 hPa - - - -
1787915294 26.67° C 94% 956 hPa - - - -
1787915053 26.67° C 93% 956 hPa - - - -
1787914811 26.67° C 95% 956 hPa - - - -
1787914570 27.22° C 95% 957 hPa - - - -
1787914329 27.22° C 95% 956 hPa - - - -
1787913847 28.89° C 84% 956 hPa - - - -
1787913365 30° C 66% 956 hPa - - - -
1787912883 31.67° C 49% 955 hPa - - - -
1787912642 32.22° C 52% 954 hPa - - - -
1787912160 32.78° C 48% 954 hPa - - - -
1787911919 32.78° C 50% 954 hPa - - - -
1787911678 32.78° C 56% 954 hPa - - - -
1787911443 32.78° C 50% 953 hPa - - - -
1787910954 31.67° C 52% 953 hPa - - - -
1787910472 31.67° C 51% 953 hPa - - - -
1787910231 31.67° C 58% 953 hPa - - - -
1787909749 31.11° C 57% 953 hPa - - - -
1787909508 30.56° C 68% 953 hPa - - - -
1787909267 30.56° C 62% 953 hPa - - - -

* Rain since midnight (hover to see other rain measurements)
** Current wind speed in m/s (hover to see current wind gust speed)